User: anonymous   Login
Location: Mason Neck State Park
(38.6428°N, 77.1981°W)
Time: 14:34:22
(UTC-04:00)
Language:

Cosmos 1400 Rocket - Orbit

View from above orbital plane
View from above orbital plane
View from above satellite
View from above satellite

Ground track
Ground track

The orbit data is extracted from the following two-line orbital elements,

1 13403U 82079B   15150.17990100  .00001138  00000-0  76966-4 0  9997
2 13403 081.1710 046.5818 0033832 223.4101 136.4458 15.05316931783985
Epoch (UTC): 30 May 2015 04:19:03
Eccentricity: 0.0033832
inclination: 81.1710°
perigee height: 527 km
apogee height: 574 km
right ascension of ascending node: 46.5818°
argument of perigee: 223.4101°
revolutions per day: 15.05316931
mean anomaly at epoch: 136.4458°
orbit number at epoch: 78398

The dashed part of the orbit path shows where the satellite is in the earth's shadow,  

DLR